Change the Weather History Date:

Saturday, March 8, 2014

  Actual Average Record
Temperature  
Mean Temperature 24 °F 32 °F  
Max Temperature 33 °F 41 °F 75 °F (1977)
Min Temperature 14 °F 23 °F -9 °F (1975)
Degree Days  
Heating Degree Days 41 33  
Month to date heating degree days 415 275  
Since 1 July heating degree days 6823 5694  
Cooling Degree Days 0 0  
Month to date cooling degree days 0 0  
Year to date cooling degree days 0 0  
Moisture  
Dew Point 21 °F    
Average Humidity 76    
Maximum Humidity 92    
Minimum Humidity 59    
Precipitation  
Precipitation 0.00 in 0.06 in 1.03 in (1998)
Month to date precipitation 0.32 0.44  
Year to date precipitation 2.95 2.26  
Snow  
Snow 0.00 in 0.20 in 10.00 in (1998)
Month to date snowfall 4.1 1.5  
Since 1 July snowfall 55.9 30.4  
Snow Depth 4.00 in    
Sea Level Pressure  
Sea Level Pressure 30.25 in    
Wind  
Wind Speed 11 mph (NNW)    
Max Wind Speed 20 mph    
Max Gust Speed 23 mph    
Visibility 9 miles    
Events      
T = Trace of Precipitation, MM = Missing Value Source: NWS Daily Summary

Daily Weather History Graph

Daily Weather History Graph

Search for Another Location

Airport or City:

Trip Planner

Search our weather history database for the weather conditions in past years. The results will help you decide how hot, cold, wet, or windy it might be!

Date:

Astronomy

Mar. 08, 2014 Rise Set
Actual Time 6:33 AM CST 6:07 PM CST
Civil Twilight 6:05 AM CST 6:35 PM CST
Nautical Twilight 5:32 AM CST 7:08 PM CST
Astronomical Twilight 5:00 AM CST 7:41 PM CST
Moon 11:07 AM CST (3/8) 1:14 AM CST (3/8)
Length of Visible Light 12h 30m
Length of Day
11h 34m
First Quarter, 52% of the Moon is Illuminated
Mar 8
First Quarter
Mar 16
Full
Mar 23
Last Quarter
Mar 30
New
Apr 7
First Quarter

Hourly Weather History & Observations

Time (CST) Temp. Windchill Dew Point Humidity Pressure Visibility Wind Dir Wind Speed Gust Speed Precip Events Conditions
12:10 AM 28.9 °F 19.2 °F 25.0 °F 85% 30.08 in 7.0 mi NNW 11.5 mph - N/A   Overcast
12:54 AM 28.9 °F 16.9 °F 26.1 °F 89% 30.12 in 7.0 mi North 17.3 mph - N/A   Overcast
1:42 AM 28.9 °F 16.9 °F 26.1 °F 89% 30.11 in 6.0 mi North 17.3 mph - N/A   Overcast
1:54 AM 28.9 °F 16.5 °F 26.1 °F 89% 30.14 in 5.0 mi North 18.4 mph - N/A   Overcast
2:54 AM 28.9 °F 17.3 °F 26.1 °F 89% 30.14 in 6.0 mi North 16.1 mph - N/A   Overcast
3:47 AM 28.0 °F 15.7 °F 25.0 °F 88% 30.12 in 9.0 mi North 17.3 mph - N/A   Overcast
3:54 AM 28.0 °F 16.1 °F 25.0 °F 88% 30.15 in 9.0 mi North 16.1 mph - N/A   Overcast
4:54 AM 28.0 °F 17.0 °F 24.1 °F 85% 30.18 in 10.0 mi North 13.8 mph - N/A   Overcast
5:54 AM 27.0 °F 16.1 °F 24.1 °F 89% 30.21 in 10.0 mi North 12.7 mph - N/A   Overcast
6:52 AM 26.6 °F 15.7 °F 21.2 °F 80% 30.20 in 10.0 mi NNW 12.7 mph - N/A   Overcast
6:54 AM 27.0 °F 15.6 °F 21.9 °F 81% 30.24 in 10.0 mi NNW 13.8 mph - N/A   Overcast
7:54 AM 27.0 °F 15.6 °F 21.9 °F 81% 30.25 in 10.0 mi North 13.8 mph - N/A   Overcast
8:54 AM 27.0 °F 15.6 °F 21.9 °F 81% 30.26 in 10.0 mi North 13.8 mph - N/A   Overcast
9:54 AM 28.9 °F 18.6 °F 23.0 °F 78% 30.29 in 10.0 mi North 12.7 mph - N/A   Overcast
10:54 AM 30.0 °F 21.1 °F 23.0 °F 75% 30.30 in 10.0 mi NNW 10.4 mph - N/A   Overcast
11:54 AM 30.9 °F 22.2 °F 23.0 °F 72% 30.30 in 10.0 mi North 10.4 mph - N/A   Clear
12:54 PM 30.9 °F 21.7 °F 21.0 °F 67% 30.29 in 10.0 mi North 11.5 mph - N/A   Clear
1:54 PM 32.0 °F 24.8 °F 21.9 °F 66% 30.28 in 10.0 mi NNW 8.1 mph - N/A   Scattered Clouds
2:54 PM 32.0 °F 22.1 °F 19.9 °F 61% 30.29 in 10.0 mi NNW 13.8 mph - N/A   Clear
3:54 PM 28.9 °F 18.6 °F 19.9 °F 69% 30.29 in 10.0 mi NNW 12.7 mph - N/A   Clear
4:54 PM 28.9 °F 18.6 °F 19.9 °F 69% 30.30 in 10.0 mi NNW 12.7 mph - N/A   Clear
5:54 PM 27.0 °F 18.7 °F 19.0 °F 72% 30.31 in 10.0 mi NNW 8.1 mph - N/A   Clear
6:54 PM 24.1 °F 17.0 °F 18.0 °F 77% 30.32 in 10.0 mi NNW 5.8 mph - N/A   Clear
7:54 PM 23.0 °F 18.4 °F 18.0 °F 81% 30.32 in 10.0 mi West 3.5 mph - N/A   Clear
8:54 PM 21.0 °F 14.6 °F 16.0 °F 81% 30.32 in 10.0 mi West 4.6 mph - N/A   Clear
9:54 PM 19.9 °F 12.1 °F 15.1 °F 81% 30.32 in 10.0 mi West 5.8 mph - N/A   Clear
10:54 PM 18.0 °F - 14.0 °F 84% 30.32 in 10.0 mi Calm Calm - N/A   Clear
11:54 PM 14.0 °F 8.2 °F 10.9 °F 88% 30.30 in 10.0 mi WSW 3.5 mph - N/A   Clear